[[[{"header":{"parameterUnit":"kt","parameterCategory":2,"dx":1,"dy":1,"la1":30.253999710083008,"la2":30.299108505249023,"lo1":-89.0895004272461,"lo2":-89.04439544677734,"nx":28,"ny":28,"refTime":"2022-09-20T09:00:00:Z","depth":0,"parameterNumber":1,"parameterNumberName":"U-component_of_WINDS"},"data":[4.5814,4.59,4.5938,4.6053,4.6106,4.6191,4.6232,4.629,4.6345,4.6449,4.6514,4.656,4.6628,4.6714,4.6785,4.6804,4.683,4.6833,4.6853,4.6809,4.6805,4.6801,4.6783,4.6839,4.6839,4.6894,4.6894,4.6895,4.5774,4.5828,4.5901,4.5996,4.6058,4.6078,4.6155,4.6205,4.6279,4.6348,4.6416,4.6509,4.6588,4.6657,4.6737,4.6776,4.6789,4.6795,4.6791,4.6801,4.6755,4.6736,4.6783,4.6783,4.6783,4.6783,4.6783,4.6783,4.5712,4.5763,4.5843,4.5923,4.5982,4.6045,4.6099,4.6155,4.6226,4.6317,4.6347,4.6432,4.6507,4.6623,4.6671,4.6736,4.6736,4.6753,4.6758,4.676,4.6758,4.6669,4.6752,4.6752,4.6752,4.6752,4.6752,0,4.5677,4.5705,4.5779,4.5863,4.5923,4.5992,4.606,4.6095,4.6167,4.6222,4.6305,4.6358,4.6464,4.6544,4.6629,4.6675,4.6699,4.6706,4.6718,4.6703,4.6677,4.6689,4.6609,4.6703,4.6703,4.6703,4.6702,4.6702,4.5614,4.5671,4.5774,4.582,4.5868,4.5941,4.5993,4.6052,4.6103,4.6196,4.6237,4.632,4.6389,4.6514,4.6577,4.6655,4.6667,4.6698,4.6679,4.6662,4.6664,4.6659,4.6663,4.6699,4.67,4.67,4.67,0,4.5574,4.5637,4.5737,4.5834,4.586,4.5915,4.5997,4.605,4.6099,4.6178,4.62,4.6276,4.6355,4.6414,4.6517,4.6544,4.6631,4.6642,4.6605,4.6609,4.6641,4.6636,4.674,4.6755,4.67,4.6701,4.6701,0,4.5544,4.5616,4.5705,4.5759,4.5841,4.59,4.5978,4.6027,4.6095,4.6158,4.6197,4.6255,4.6321,4.6387,4.6429,4.6511,4.6531,4.6556,4.6565,4.6551,4.6547,4.6576,4.6572,4.6589,4.6588,4.6588,4.6587,0,4.5472,4.5606,4.5696,4.5736,4.5847,4.5887,4.5935,4.6012,4.6061,4.6135,4.6168,4.6249,4.6293,4.6355,4.6407,4.6391,4.651,4.6499,4.6535,4.6533,4.6556,4.6553,4.6633,4.6587,4.6586,4.6586,4.6586,0,4.5456,4.5533,4.5655,4.5747,4.578,4.5839,4.5924,4.5989,4.6067,4.6098,4.6156,4.6188,4.6267,4.6251,4.636,4.6325,4.6365,4.6397,4.6401,4.6409,4.6389,4.6422,4.6496,4.6504,4.6419,4.6417,4.6416,0,4.5355,4.5497,4.5549,4.5663,4.5736,4.5774,4.5841,4.591,4.5957,4.6024,4.6074,4.615,4.6152,4.6183,4.623,4.6285,4.6331,4.6281,4.6371,4.6374,4.6346,4.6415,4.641,4.6474,4.6399,4.6401,4.6403,0,4.5285,4.5422,4.5439,4.5487,4.559,4.5651,4.5729,4.5818,4.586,4.5934,4.5998,4.6109,4.6113,4.6166,4.62,4.6245,4.6301,4.6244,4.6247,4.6249,4.6397,4.6391,4.6402,4.6314,4.6316,4.6318,4.6389,0,4.524,4.5321,4.5371,4.5477,4.5535,4.5612,4.5677,4.5728,4.5756,4.5804,4.5901,4.5974,4.6064,4.6093,4.6121,4.6207,4.6201,4.6205,4.6192,4.6238,4.6263,4.6273,4.615,4.615,4.615,4.615,0,0,4.5126,4.5243,4.5299,4.5377,4.5429,4.5468,4.5543,4.5599,4.5708,4.5742,4.5736,4.5901,4.5961,4.6071,4.6091,4.6129,4.6148,4.6131,4.6217,4.6224,4.6231,4.6256,4.6266,4.615,4.615,4.615,4.615,0,4.5123,4.5187,4.5263,4.5323,4.5414,4.5462,4.548,4.5576,4.561,4.5708,4.5736,4.5803,4.5934,4.5992,4.6038,4.612,4.6136,4.6143,4.6164,4.6215,4.6222,4.6228,4.6254,4.6263,4.615,4.615,4.615,0,4.5062,4.5135,4.5179,4.5303,4.5362,4.5437,4.544,4.5521,4.5576,4.5613,4.5709,4.5758,4.5842,4.594,4.5986,4.5981,4.6121,4.609,4.6092,4.6097,4.6149,4.6158,4.6165,4.6064,4.6064,4.6063,0,0,4.505,4.5127,4.5223,4.5307,4.5343,4.5415,4.5462,4.5495,4.5571,4.5602,4.5665,4.5736,4.5813,4.5862,4.5938,4.6037,4.6058,4.6077,4.6081,4.6084,4.6091,4.6144,4.6152,4.6061,4.6061,4.6061,0,0,4.5044,4.516,4.5175,4.5282,4.5354,4.5453,4.55,4.5521,4.5597,4.5595,4.5653,4.5675,4.5768,4.5815,4.5779,4.5934,4.592,4.593,4.5899,4.5905,4.591,4.5895,4.5791,0,0,0,0,0,4.5075,4.5145,4.5159,4.5186,4.5342,4.5446,4.5466,4.5517,4.5505,4.5542,4.5598,4.5614,4.5807,4.5777,4.5802,4.5841,4.6034,4.6039,4.6043,4.6028,4.6033,4.6038,0,0,0,0,0,0,4.5086,4.512,4.5157,4.5258,4.5294,4.5444,4.5435,4.5451,4.5503,4.5504,4.5602,4.5617,4.5661,4.5767,4.579,4.5825,4.5783,4.6036,4.604,4.6044,4.603,4.6034,4.6038,0,0,0,0,0,4.5095,4.5123,4.536,4.5258,4.5288,4.5373,4.5433,4.5446,4.5487,4.5574,4.5589,4.5521,4.5661,4.5683,4.5781,4.5814,4.5768,4.5776,4.6038,4.6042,4.6045,4.6032,0,0,0,0,0,0,4.5102,4.5135,4.5367,4.5378,4.5235,4.5366,4.5388,4.5442,4.5555,4.557,4.5495,4.5495,4.5662,4.5679,4.5695,4.5807,4.5756,4.5764,4.5769,4.6041,4.6043,4.6046,0,0,0,0,0,0,4.512,4.5144,4.5373,4.5342,4.535,4.5358,4.5378,4.5469,4.5555,4.5469,4.5472,4.5493,4.5635,4.5676,4.5689,4.5829,4.5747,4.5754,4.576,4.5763,4.6043,4.6045,0,0,0,0,0,0,4.5131,4.5151,4.5339,4.5345,4.5352,4.5482,4.5439,4.5596,4.553,4.5463,4.5526,4.5524,4.5632,4.5647,4.5684,4.5818,4.5826,4.5747,4.5752,4.5756,4.5758,0,0,0,0,0,0,0,4.514,4.4993,4.5301,4.5348,4.5354,4.5482,4.5485,4.5488,4.553,4.5528,4.5526,4.5525,4.5701,4.571,4.5719,4.581,0,0,4.5746,4.575,0,0,0,0,0,0,0,0,4.4985,4.4991,4.5301,4.5303,4.5306,4.5482,4.5485,4.5487,4.553,4.5528,4.5527,4.5525,4.5704,4.5711,4.5718,0,0,0,0,0,0,0,0,0,0,0,0,0,0,0,4.5301,4.5303,0,4.5482,4.5484,4.5486,4.5529,4.5528,4.5527,4.5526,4.5706,4.5712,4.5717,0,0,0,0,0,0,0,0,0,0,0,0,0,0,0,0,0,0,0,0,0,0,0,0,0,0,0,0,0,0,0,0,0,0,0,0,0,0,0,0,0,0,0,0,0,0,0,0,0,0,0,0,0,0,0,0,0,0,0,0,0,0,0,0,0,0,0,0,0]}],[{"header":{"parameterUnit":"kt","parameterCategory":2,"dx":1,"dy":1,"la1":30.253999710083008,"la2":30.299108505249023,"lo1":-89.0895004272461,"lo2":-89.04439544677734,"nx":28,"ny":28,"refTime":"2022-09-20T09:00:00:Z","depth":0,"parameterNumber":2,"parameterNumberName":"V-component_of_WINDS"},"data":[1.2141,1.2115,1.2072,1.2022,1.1974,1.1931,1.1902,1.1859,1.1813,1.1756,1.1715,1.1667,1.1602,1.1541,1.1493,1.1472,1.1454,1.1478,1.1449,1.1387,1.1375,1.1364,1.1368,1.1475,1.1475,1.1518,1.1519,1.1519,1.2098,1.2051,1.2013,1.1945,1.1911,1.1862,1.1803,1.1777,1.174,1.1684,1.1641,1.1587,1.1538,1.1463,1.1407,1.1392,1.1365,1.138,1.138,1.137,1.1303,1.1307,1.1403,1.1403,1.1403,1.1403,1.1403,1.1403,1.2009,1.1996,1.193,1.1886,1.184,1.1795,1.1774,1.1715,1.1676,1.1614,1.1568,1.1525,1.1458,1.1369,1.1327,1.1291,1.1265,1.1267,1.1267,1.1269,1.1277,1.1218,1.1279,1.1279,1.1278,1.1278,1.1278,0,1.193,1.1894,1.1854,1.18,1.1766,1.172,1.167,1.1656,1.1563,1.1534,1.1488,1.1453,1.1385,1.1335,1.1272,1.1228,1.1172,1.1162,1.1162,1.1184,1.1211,1.1195,1.1086,1.116,1.1159,1.1158,1.1157,1.1157,1.1835,1.1826,1.1735,1.1712,1.1674,1.1639,1.1609,1.1527,1.1498,1.1424,1.1415,1.1365,1.132,1.1252,1.1182,1.113,1.1102,1.1135,1.1093,1.1114,1.11,1.1101,1.1099,1.1144,1.1146,1.1147,1.1148,0,1.1786,1.1714,1.1684,1.1594,1.1571,1.1565,1.1486,1.1469,1.1414,1.1382,1.1369,1.1282,1.1237,1.1161,1.1094,1.1055,1.104,1.1015,1.1062,1.1052,1.1073,1.1072,1.1156,1.1162,1.1051,1.1053,1.1053,0,1.1677,1.1667,1.1559,1.1546,1.1531,1.145,1.1437,1.1388,1.133,1.1304,1.123,1.1207,1.1113,1.1078,1.1021,1.0995,1.0983,1.0951,1.0936,1.0957,1.0961,1.0939,1.0934,1.0903,1.0903,1.0902,1.0902,0,1.1606,1.1537,1.1515,1.1488,1.139,1.1381,1.134,1.1275,1.1245,1.1195,1.1175,1.1122,1.1093,1.1053,1.098,1.0955,1.0946,1.0897,1.0914,1.0916,1.0915,1.0916,1.101,1.0902,1.0902,1.0901,1.0901,0,1.1506,1.1459,1.1438,1.1355,1.134,1.1325,1.1268,1.1238,1.1174,1.1137,1.1097,1.1037,1.101,1.0965,1.0925,1.0912,1.0887,1.0854,1.0854,1.0846,1.0799,1.0861,1.096,1.0966,1.084,1.0839,1.0839,0,1.1445,1.1405,1.1334,1.1316,1.1287,1.1205,1.1187,1.1133,1.1082,1.1049,1.0992,1.0955,1.0906,1.0883,1.0874,1.0813,1.0829,1.0809,1.0759,1.0758,1.0778,1.0868,1.0901,1.0947,1.0831,1.0832,1.0833,0,1.1388,1.127,1.1272,1.1237,1.1153,1.1128,1.1108,1.1053,1.1035,1.0983,1.0963,1.0909,1.0869,1.0833,1.0779,1.0773,1.0816,1.0731,1.0728,1.0748,1.0822,1.0853,1.0861,1.0781,1.0781,1.0782,1.0827,0,1.125,1.1221,1.1223,1.1149,1.1118,1.1103,1.1023,1.1001,1.0952,1.0899,1.0868,1.0804,1.0747,1.0737,1.0689,1.07,1.0686,1.0644,1.0595,1.0655,1.0668,1.0673,1.0583,1.0581,1.0579,1.0578,0,0,1.1209,1.1165,1.1089,1.1067,1.1036,1.0951,1.0941,1.0901,1.0822,1.0802,1.0774,1.0689,1.0638,1.0609,1.0622,1.06,1.0593,1.0576,1.0627,1.0633,1.0638,1.0653,1.066,1.0575,1.0574,1.0574,1.0573,0,1.1142,1.1094,1.1086,1.1041,1.0972,1.0916,1.0915,1.0831,1.0796,1.0766,1.0695,1.0667,1.0603,1.0557,1.0525,1.0578,1.0525,1.0567,1.0621,1.0614,1.0622,1.0629,1.0646,1.0653,1.0569,1.0569,1.0569,0,1.107,1.1009,1.0997,1.0924,1.0878,1.085,1.0779,1.0753,1.0731,1.0638,1.061,1.0563,1.0496,1.048,1.047,1.0444,1.0467,1.0446,1.0454,1.0451,1.0439,1.0449,1.0458,1.0342,1.0342,1.0342,0,0,1.1023,1.0996,1.0904,1.0904,1.0879,1.0796,1.0774,1.0723,1.0665,1.0642,1.0581,1.0527,1.0487,1.0463,1.0423,1.0417,1.0396,1.0421,1.0432,1.0441,1.0443,1.0434,1.0444,1.034,1.034,1.034,0,0,1.1,1.0894,1.0856,1.0845,1.0793,1.0702,1.0704,1.0654,1.0609,1.0602,1.0513,1.0495,1.0479,1.0436,1.0422,1.0403,1.0356,1.0358,1.0432,1.0444,1.0455,1.0465,1.0339,0,0,0,0,0,1.089,1.0907,1.0873,1.086,1.0766,1.0721,1.0708,1.0636,1.0604,1.0607,1.0548,1.0493,1.041,1.0396,1.0383,1.0398,1.0318,1.0322,1.0325,1.0419,1.0433,1.0445,0,0,0,0,0,0,1.0884,1.0868,1.0873,1.0784,1.0762,1.0719,1.0649,1.063,1.0602,1.0592,1.0507,1.0491,1.0428,1.0397,1.0387,1.0403,1.0342,1.0319,1.0323,1.0326,1.0424,1.0435,1.0445,0,0,0,0,0,1.0879,1.0866,1.0735,1.0783,1.0764,1.0673,1.0648,1.0631,1.0608,1.0517,1.0499,1.0556,1.043,1.0416,1.0391,1.041,1.0349,1.0346,1.0321,1.0324,1.0326,1.043,0,0,0,0,0,0,1.0875,1.0849,1.073,1.0721,1.0771,1.0673,1.0656,1.0633,1.0533,1.0516,1.0562,1.0556,1.0432,1.0421,1.0411,1.0416,1.0355,1.0351,1.0349,1.0323,1.0325,1.0327,0,0,0,0,0,0,1.0856,1.0843,1.0725,1.0715,1.0704,1.0675,1.0659,1.0627,1.0533,1.0584,1.0575,1.056,1.0447,1.0425,1.0416,1.0369,1.0359,1.0355,1.0353,1.0351,1.0325,1.0327,0,0,0,0,0,0,1.0849,1.0838,1.0717,1.0709,1.0699,1.0599,1.0644,1.0553,1.0525,1.0589,1.0521,1.0518,1.0452,1.0442,1.042,1.0377,1.0371,1.0359,1.0356,1.0355,1.0354,0,0,0,0,0,0,0,1.0844,1.0937,1.078,1.0704,1.0695,1.0643,1.0641,1.0638,1.0525,1.0523,1.0521,1.0519,1.0379,1.0375,1.0371,1.0384,0,0,1.0359,1.0357,0,0,0,0,0,0,0,0,1.094,1.0938,1.078,1.0778,1.0777,1.0643,1.0641,1.0639,1.0524,1.0523,1.0521,1.052,1.0378,1.0375,1.0372,0,0,0,0,0,0,0,0,0,0,0,0,0,0,0,1.078,1.0779,0,1.0642,1.0641,1.0639,1.0524,1.0523,1.0522,1.0521,1.0377,1.0375,1.0372,0,0,0,0,0,0,0,0,0,0,0,0,0,0,0,0,0,0,0,0,0,0,0,0,0,0,0,0,0,0,0,0,0,0,0,0,0,0,0,0,0,0,0,0,0,0,0,0,0,0,0,0,0,0,0,0,0,0,0,0,0,0,0,0,0,0,0,0,0]}]]]